Printer-friendly version

IAU Minor Planet Center

Minor Planet Center

MPEC 2004-B02 : COMET C/2003 WT42 (LINEAR)

The following Minor Planet Electronic Circular may be linked-to from your own Web pages, but must not otherwise be redistributed electronically.


Read MPEC 2004-B01 Read MPEC 2004-B03


M.P.E.C. 2004-B02                                Issued 2004 Jan. 16, 20:54 UT

     The Minor Planet Electronic Circulars contain information on unusual
         minor planets and routine data on comets.  They are published
   on behalf of Commission 20 of the International Astronomical Union by the
          Minor Planet Center, Smithsonian Astrophysical Observatory,
                          Cambridge, MA 02138, U.S.A.

         Supported in part by the Steven and Michele Kirsch Foundation
             Prepared using the Tamkin Foundation Computer Network

                              MPC@CFA.HARVARD.EDU
          URL http://cfa-www.harvard.edu/iau/mpc.html  ISSN 1523-6714

                          COMET C/2003 WT42 (LINEAR)

Additional Observations:
    CK03W42T  C2004 01 14.13797 03 43 44.03 +31 49 58.3          18.0 N EB002H36
    CK03W42T  C2004 01 14.15869 03 43 43.77 +31 49 58.1          18.0 N EB002H36

Observer details:
H36 Sandlot Observatory, Scranton.  Observer G. Hug.  0.3-m Schmidt-Cassegrain
    + CCD.

Orbital elements:
    C/2003 WT42 (LINEAR)
Epoch 2006 Apr. 15.0 TT = JDT 2453840.5
T 2006 Apr. 11.15702 TT                                 MPC
q   5.1923048            (2000.0)            P               Q
z  -0.0003530      Peri.   92.46517     -0.66667334     -0.63508869
 +/-0.0001662      Node    48.45746     +0.28208572     -0.69948227
e   1.0018331      Incl.   31.41642     +0.68990891     -0.32769941
Residuals in seconds of arc
031030 704  0.6+  0.4-    031123 246  0.1+  0.0     031124 213  1.1-  0.7+
031030 704  0.4+  0.5+    031123 246  0.1+  0.0     031125 H41  0.1-  0.1-
031030 704  0.8-  0.0     031123 246  0.0   0.0     031125 H41  0.9+  0.3+
031119 704  0.5+  0.1+    031123 246  0.1-  0.1-    031125 H41  0.2-  0.2-
031119 704  0.1+  0.4+    031123 246  0.1+  0.0     031125 H41  0.4+  0.1+
031119 704  0.4-  0.1-    031123 246  0.0   0.0     031125 938  0.4+  0.6+
031119 704  0.3-  0.8+    031123 246  0.1-  0.0     031125 938  0.1+  0.5+
031119 704  0.9-  0.5+    031124 966  0.3+  0.1-    031126 704  0.6+  1.4-
031120 704  0.6+  0.3-    031124 966  0.1-  0.3-    031126 704  0.1+  0.9-
031120 704  0.2+  0.9+    031124 966  0.1+  0.1-    031126 704  1.2-  1.3-
031120 704  0.2-  0.2-    031124 701  0.5+  0.7-    031126 704  0.7+  0.9-
031120 704  0.2-  0.1-    031124 673  0.1-  0.3-    031126 704  0.0   0.4-
031120 704  0.7-  0.8+    031124 673  0.1-  0.3-    031128 926  0.1-  0.1+
031121 691  0.2+  0.1+    031124 673  0.2-  0.1-    031128 926  0.2+  0.4-
031121 691  0.0   0.0     031124 701  0.0   0.3-    031128 926  0.3+  0.0
031121 691  0.0   0.0     031124 673  0.3-  0.1-    031129 926  0.2+  0.1+
031122 246  0.6+  0.5-    031124 701  0.1-  0.5-    031129 926  0.1+  0.2+
031122 246  0.1+  0.1-    031124 673  0.0   0.1+    031130 696  0.2-  0.0
031122 246  0.1+  0.2-    031124 673  0.2-  0.0     031130 696  0.1-  0.0
031122 246  0.4-  0.2+    031124 291  0.7+  0.2-    031201 360  0.0   0.1+
031122 620  0.4+  0.0     031124 291  0.4+  0.8+    031201 360  0.2-  0.1+
031122 620  0.4-  1.0-    031124 291  0.6+  0.4-    031203 704  0.0   0.1+
031123 859  1.4+  1.4-    031124 704  0.2-  1.2-    031203 704  0.3+  0.6+
031123 859  0.6+  0.6-    031124 448  0.1-  0.6-    031203 704  0.0   0.2+
031123 859  0.4+  0.2-    031124 704  0.5-  0.4-    031203 704  0.3+  0.2+
031123 854  0.2-  0.3-    031124 448  0.3-  0.1-    031203 704  0.0   0.3+
031123 854  1.0-  0.1+    031124 448  0.1+  0.1-    031205 620  0.2+  0.7+
031123 854  0.1-  0.0     031124 448  0.0   0.2-    031205 620  0.2-  0.3+
031123 704  0.8+  0.3+    031124 704  0.0   0.4+    031216 185  0.3+  0.1-
031123 704  1.1+  0.6+    031124 704  0.1+  0.4+    031216 185  0.2-  0.2+
031123 704  0.2+  1.8+    031124 785  0.0   0.1+    031216 185  0.3-  0.2-
031123 704  0.1+  0.1+    031124 926  0.5+  0.0     031217 704  1.2+  0.2+
031123 704  0.1+  0.2-    031124 704  0.3-  0.3+    031217 704  0.4+  0.2-
031123 704  0.0   1.0+    031124 926  0.1+  0.1-    031217 704  0.4+  0.3+
031123 704  0.6-  0.3-    031124 651  0.2-  0.1-    031217 704  0.1+  0.5-
031123 G72  0.8-  0.1+    031124 926  0.6-  0.0     031217 704  1.2-  0.0
031123 G72  0.2-  0.3-    031124 651  0.1-  0.1-    031218 691  0.0   0.3+
031123 704  1.2-  0.1+    031124 651  0.0   0.1-    031218 691  0.3-  0.1-
031123 G72  0.1+  0.2-    031124 785  0.6+  0.4+    031218 691  0.1-  0.3+
031123 704  0.1-  0.5+    031124 785  0.3+  1.2+    031227 704  1.5+  0.2+
031123 G72  0.1-  0.1+    031124 G72  0.4-  0.1+    031227 704  0.3+  0.6-
031123 G72  0.1+  0.3+    031124 G72  0.4-  0.3+    031227 704  0.1-  0.4-
031123 704  0.8-  0.3-    031124 G72  0.3+  0.2+    031227 704  0.0   1.3+
031123 900  0.6-  0.0     031124 G72  0.5+  0.0     031227 704  1.2-  0.6-
031123 900  0.2+  0.1+    031124 G72  0.2-  0.6-    031229 291  0.5-  0.3-
031123 900  0.3-  0.2+    031124 620  0.2-  0.3-    031229 291  0.3-  0.3-
031123 900  0.3-  0.1+    031124 620  0.4-  0.1-    031229 291  0.7-  0.2-
031123 900  0.4+  0.7+    031124 620  0.2-  0.2-    040114 H36  0.3+  0.2+
031123 246  0.1-  0.0     031124 213 (2.4+  1.0-)   040114 H36  0.2+  0.2+

Ephemeris:
    C/2003 WT42 (LINEAR)
Date    TT    R. A. (2000) Decl.     Delta      r     Elong.  Phase   m1    m2
2004 01 16    03 43.38   +31 49.7    7.259    7.863   124.8     5.9        18.2
2004 01 26    03 42.10   +31 48.9    7.350    7.812   114.7     6.6        18.3
2004 02 05    03 41.84   +31 49.8    7.452    7.762   104.7     7.1        18.3
2004 02 15    03 42.61   +31 53.0    7.562    7.711    95.0     7.3        18.4
2004 02 25    03 44.40   +31 59.0    7.675    7.661    85.5     7.4        18.4
2004 03 06    03 47.15   +32 07.8    7.785    7.612    76.3     7.3        18.4
2004 03 16    03 50.80   +32 19.5    7.889    7.562    67.4     7.0        18.4
2004 03 26    03 55.27   +32 34.0    7.983    7.512    58.7     6.5        18.4
2004 04 05    04 00.47   +32 51.1    8.063    7.463    50.2     5.9        18.4
2004 04 15    04 06.32   +33 10.6    8.128    7.414    42.1     5.2        18.3
2004 04 25    04 12.74   +33 32.2    8.174    7.365    34.3     4.4        18.3

     The "original" and "future" barycentric values of 1/a are +0.000187
and +0.000341 (+/- 0.000166) AU^-1, respectively.

Gareth V. Williams           (C) Copyright 2004 MPC           M.P.E.C. 2004-B02

Read MPEC 2004-B01 Read MPEC 2004-B03


Our Web policy. Index to the CBAT/MPC/ICQ pages.


Valid HTML 4.01!